Other Public Products
Issued by NWS Grand Forks, ND

Home | Current Version | Previous Version | Text Only | Print | Product List | Glossary Off
Versions: 1 2 3 4 5 6 7 8 9 10 11 12 13 14 15 16 17 18 19 20 21 22 23 24 25 26 27 28 29 30 31 32 33 34 35 36 37 38 39 40 41 42 43 44 45 46 47 48 49 50

000
FPUS83 KFGF 232010
OPUFGF
NATIONAL WEATHER SERVICE EASTERN NORTH DAKOTA/GRAND FORKS ND
300 PM CDT SAT MAY 23 2015

 **SATELLITE DATA USED TO AUGMENT SKY COVER AT AUTOMATED STATIONS**
 *****  WEATHER ACROSS EASTERN NORTH DAKOTA  *****

CITY           SKY/WX    TMP DP  RH WIND       PRES   REMARKS
GRAND FORKS    MOSUNNY   75  41  29 W8        30.10F
GRAND FORKS AF SUNNY     77  42  28 W8        30.11S
GRAND CITY NWS   N/A     73 N/A N/A SW7         N/A
BUXTON         NOT AVBL
DEVILS LAKE    SUNNY     73  37  27 SE7       30.11S
FARGO          MOSUNNY   72  47  40 S13       30.15F
WAHPETON ARPT  CLOUDY    68  41  37 S15       30.17S
$$

 *****  WEATHER ACROSS CENTRAL AND WESTERN NORTH DAKOTA  *****

CITY           SKY/WX    TMP DP  RH WIND       PRES   REMARKS
JAMESTOWN      MOSUNNY   69  45  41 SE9G20    30.13F
BISMARCK       CLOUDY    66  47  50 SE15G21   30.13F
MINOT          CLOUDY    74  37  26 SE12G17   30.11S
MINOT AFB      MOSUNNY   77  38  24 VRB5G18   30.09F
GARRISON         N/A     72  40  31 E13       30.12F
WILLISTON      PTSUNNY   71  37  28 SE14      30.11S
DICKINSON      CLOUDY    59  45  59 SE14      30.10S
HETTINGER      CLOUDY    58  45  62 SE14G21   30.10F
$$

 *****  OTHER OBSERVATIONS NORTHEAST NORTH DAKOTA  *****

CITY           SKY/WX    TMP DP  RH WIND       PRES   REMARKS
WALHALLA         N/A     79  37  22 SE14      30.08S
LANGDON        FAIR      81  32  17 CALM      30.10S
CAVALIER       FAIR      77  30  18 S6        30.09S
GRAFTON        FAIR      77  34  20 S5        30.10F
CANDO          FAIR      77  36  22 S12G18    30.10F
FORT TOTTEN      N/A     76  42  29 N6        29.95S
ROLLA            N/A     75  32  20 S8        30.11F
RUGBY          NOT AVBL
 ***** THE ABOVE OBSERVATIONS ARE NON NWS ARE NOT QUALITY
        CONTROLLED AND MAY MIS-REPORT RAIN FOR SNOW...
$$

 *****  OTHER OBSERVATIONS SOUTHEAST NORTH DAKOTA *****

CITY           SKY/WX    TMP DP  RH WIND       PRES   REMARKS
COOPERSTOWN    NOT AVBL
VALLEY CITY    FAIR      68  43  40 S13G21    30.15S
OAKES            N/A     66  48  52 SE9G16    30.15S
GWINNER        NOT AVBL
BUFFALO        NOT AVBL
WYNDMERE         N/A     70  45  40 S9          N/A
 ***** THE ABOVE OBSERVATIONS ARE NON NWS ARE NOT QUALITY
       CONTROLLED AND MAY MIS-REPORT RAIN FOR SNOW...
$$

  *****  WEATHER ACROSS NORTHERN MINNESOTA  *****

CITY           SKY/WX    TMP DP  RH WIND       PRES   REMARKS
FLAG ISLAND    SUNNY     64  46  52 S15       30.09S
WARROAD        SUNNY     77  43  29 S8G17     30.12S
ROSEAU         SUNNY     79  36  21 SW10G16   30.11F
HALLOCK        SUNNY     77  30  18 S6        30.09F
THF RVR FALLS  MOSUNNY   75  39  27 SW17      30.13F
HALSTAD        NOT AVBL
FOSSTON        MOSUNNY   73  43  33 S12       30.16S
BAUDETTE       MOSUNNY   78  37  22 S17       30.12F
WASKISH        SUNNY     72  54  53 CALM      30.14F
CROOKSTON      SUNNY     77  43  29 SW18G25   30.13S
$$
  *****  WEATHER ACROSS CENTRAL AND WEST MINNESOTA  *****

CITY           SKY/WX    TMP DP  RH WIND       PRES   REMARKS
BEMIDJI        PTSUNNY   74  41  30 SW8       30.15F
PARK RAPIDS    MOSUNNY   73  41  31 VRB7G21   30.18S
WADENA         MOSUNNY   68  45  42 S10G17    30.20S
DETROIT LAKES  SUNNY     70  43  37 SW13      30.19S
MOORHEAD       SUNNY     72  43  35 S10G20    30.16F
FERGUS FALLS   PTSUNNY   70  43  37 SE15      30.18F
ELBOW LAKE     CLOUDY    67  43  42 S15       30.18F
MORRIS MN      PTSUNNY   70  45  40 S15G22    30.18S
STAPLES        PTSUNNY   70  43  37 SW15      30.21S
WHEATON        PTSUNNY   68  45  42 SE16      30.18S
$$
  *****  WEATHER ELSEWHERE ACROSS MINNESOTA  *****

CITY           SKY/WX    TMP DP  RH WIND       PRES   REMARKS
DULUTH         MOSUNNY   76  33  21 VRB6G20   30.17F
INTRNTL FALLS  MOSUNNY   79  35  20 SW12G17   30.12F
ELY            MOSUNNY   75  34  22 SW5       30.14F
CLOQUET        MOSUNNY   73  28  19 MISG      30.17F
BRAINERD       MOSUNNY   71  42  35 SW14G23   30.21S
HIBBING        MOSUNNY   76  32  20 VRB5      30.15F
ALEXANDRIA     PTSUNNY   66  43  43 S9G22     30.21F
SAINT CLOUD    CLOUDY    64  46  52 VRB3      30.23F
MINNEAPOLIS    CLOUDY    73  41  31 VRB3      30.21F
$$

  *****  WEATHER ACROSS SOUTH DAKOTA  *****

CITY           SKY/WX    TMP DP  RH WIND       PRES   REMARKS
SIOUX FALLS    CLOUDY    65  51  60 S12G20    30.13F
BROOKINGS      CLOUDY    63  48  59 S7        30.16F
WATERTOWN      CLOUDY    65  47  52 SE15      30.15F
HURON          CLOUDY    67  51  56 S12G21    30.12F
SISSETON         N/A     70  44  39 S14       30.15S
ABERDEEN       CLOUDY    63  48  58 S10       30.15S
MITCHELL       CLOUDY    64  53  67 SE13      30.13F
PIERRE         CLOUDY    56  54  93 SE10      30.08F
MOBRIDGE       CLOUDY    61  51  70 SE14      30.11R
RAPID CITY     CLOUDY    55  48  77 E12       30.05S
$$

  *****  SOME WEATHER IN NEARBY STATES *****

CITY           SKY/WX    TMP DP  RH WIND       PRES   REMARKS
GLASGOW MT     MOSUNNY   72  37  28 E22G31    30.06F
GREAT FALLS MT CLOUDY    60  50  69 VRB5      30.06F
CHEYENNE WY    CLOUDY    56  45  66 S12       29.98F
SCOTTSBLUFF NE CLOUDY    57  53  86 E16       29.98S
OMAHA NE       CLOUDY    64  56  75 S9        30.14F
DES MOINES IA  PTSUNNY   73  49  42 SE16      30.17F
DAVENPORT IA   MOSUNNY   80  46  30 S14       30.23F
CHICAGO IL     MOSUNNY   78  39  24 SW7       30.25F
EAU CLAIRE WI  PTSUNNY   73  41  31 S3        30.21F
LA CROSSE WI   MOSUNNY   78  40  25 S10       30.20F
$$

  *****  SOME NATIONAL WEATHER *****

CITY           SKY/WX    TMP DP  RH WIND       PRES   REMARKS
LA GUARDIA NY  SUNNY     67  24  19 N7        30.35F
RALEIGH NC     MOSUNNY   77  46  33 S5        30.39F
ATLANTA GA     MOSUNNY   81  51  35 E10       30.33F
NEW ORLEANS LA PTSUNNY   87  69  54 SE13      30.17F HX  91
OKLAHOMA CITY  LGT RAIN  68  67  96 SE16G22   29.98F FOG
ALBUQUERQUE NM PTSUNNY   66  26  22 VRB6      29.98F
SALT LAKE CITY CLOUDY    57  45  64 NW12      29.93F
LOS ANGELES CA MOSUNNY   66  52  60 W13       30.09S
BOISE ID       MOSUNNY   74  51  44 NW12G18   29.86F
SEATTLE WA     CLOUDY    57  49  74 VRB3      30.20R
$$

*** WEATHER ACROSS MANITOBA...SASKATCHEWAN AND ONTARIO ***
                ***ONTARIO***

CITY           SKY/WX    TMP DP  RH WIND       PRES   REMARKS
GERALDTON      PTSUNNY   72  41  33 N16       29.99R
THUNDER BAY    PTSUNNY   82  37  20 SW13G32   30.04S
SIOUX LOOKOUT  PTSUNNY   75  37  25 W13G22    30.04S
TORONTO        MOSUNNY   72  30  21 W15G22    30.30F
BIG TROUT LK   SUNNY     52  23  32 NW7       30.10S
PICKLE LAKE    MOSUNNY   72  37  28 NW12      29.99F
DRYDEN         MOSUNNY   77  32  19 W21G32    30.06S
KENORA         PTSUNNY   79  37  22 MISG      30.09S
$$
                *** MANITOBA***

CITY           SKY/WX    TMP DP  RH WIND       PRES   REMARKS
BRANDON        PTSUNNY   79  32  18 VRB7      30.08S
DAUPHIN        SUNNY     82  27  13 N3        30.04S
ISLAND LAKE    MOSUNNY   57  30  35 N8        30.14F
PILOT MOUND      N/A     77  28  16 SE5         N/A
THE PAS        MOSUNNY   64  39  39 N12       30.15S
THOMPSON       MOSUNNY   57  25  28 VRB6      30.18F
WINNIPEG       MOSUNNY   81  37  21 SW8       30.07S
LYNN LAKE      SUNNY     59  23  25 NW6       30.20F
CHURCHILL      PTSUNNY   48  27  43 W10       30.11F
GILLAM         MOSUNNY   50  25  37 W8        30.18F
$$
                ***SASKATCHEWAN***

CITY           SKY/WX    TMP DP  RH WIND       PRES   REMARKS
ESTEVAN        PTSUNNY   75  34  22 E5        30.12S
KINDERSLEY     PTSUNNY   77  28  16 E7        30.11S
LLOYDMINSTER   PTSUNNY   77  27  15 E3        30.11S
PRINCE ALBERT  MOSUNNY   81  36  19 E7        30.07S
REGINA         PTSUNNY   79  32  18 SE8       30.11S
YORKTON        SUNNY     81  34  18 NE10G17   30.07S


USA.gov is the U.S. government's official web portal to all federal, state and local government web resources and services.